| time (UTC) | temp F | wind direction | speed MPH | gust MPH | rain 1hr in | rain 24hr in | rain mn in | humidity % | barometer mb |
| 20260507020016 | 63 | 153 | 8.0 | 13.0 | 0.00 | 0.02 | 0.02 | 20 | 1012.8 |
| 20260507014515 | 64 | 153 | 8.0 | 15.0 | 0.00 | 0.02 | 0.02 | 19 | 1012.7 |
| 20260507013015 | 65 | 129 | 10.0 | 14.0 | 0.00 | 0.02 | 0.02 | 19 | 1012.5 |
| 20260507011512 | 66 | 169 | 5.0 | 11.0 | 0.00 | 0.02 | 0.02 | 20 | 1012.2 |
| 20260507010012 | 65 | 94 | 2.0 | 6.0 | 0.00 | 0.02 | 0.02 | 21 | 1012.1 |
| 20260507004512 | 66 | 55 | 3.0 | 9.0 | 0.00 | 0.02 | 0.02 | 21 | 1012.1 |
| 20260507003019 | 67 | 227 | 1.0 | 5.0 | 0.00 | 0.02 | 0.02 | 21 | 1012.1 |
| 20260507001518 | 66 | 256 | 4.0 | 7.0 | 0.00 | 0.02 | 0.02 | 21 | 1012.0 |
| 20260507000012 | 65 | 27 | 4.0 | 10.0 | 0.00 | 0.02 | 0.02 | 22 | 1011.9 |
| 20260506234509 | 66 | 327 | 0.0 | 9.0 | 0.00 | 0.02 | 0.02 | 22 | 1012.0 |
| 20260506233005 | 65 | 104 | 3.0 | 7.0 | 0.00 | 0.02 | 0.02 | 22 | 1012.0 |
| 20260506231603 | 64 | 57 | 2.0 | 11.0 | 0.00 | 0.02 | 0.02 | 23 | 1012.0 |
| 20260506230032 | 65 | 58 | 7.0 | 11.0 | 0.00 | 0.02 | 0.02 | 23 | 1011.9 |
| 20260506224618 | 64 | 219 | 2.0 | 8.0 | 0.00 | 0.02 | 0.02 | 24 | 1012.2 |
| 20260506223015 | 63 | 263 | 2.0 | 16.0 | 0.00 | 0.02 | 0.02 | 25 | 1012.1 |
| 20260506221510 | 63 | 21 | 4.0 | 13.0 | 0.00 | 0.02 | 0.02 | 25 | 1012.4 |
| 20260506220024 | 63 | 76 | 7.0 | 12.0 | 0.00 | 0.02 | 0.02 | 25 | 1012.5 |
| 20260506214502 | 62 | 49 | 10.0 | 19.0 | 0.00 | 0.02 | 0.02 | 25 | 1012.7 |
| 20260506213005 | 62 | 55 | 6.0 | 17.0 | 0.00 | 0.02 | 0.02 | 25 | 1012.7 |
| 20260506211501 | 61 | 38 | 10.0 | 15.0 | 0.00 | 0.02 | 0.02 | 26 | 1012.8 |
| 20260506210019 | 61 | 63 | 9.0 | 21.0 | 0.00 | 0.02 | 0.02 | 26 | 1012.6 |
| 20260506204521 | 60 | 71 | 7.0 | 17.0 | 0.00 | 0.02 | 0.02 | 26 | 1012.8 |
| 20260506203027 | 60 | 45 | 9.0 | 16.0 | 0.00 | 0.02 | 0.02 | 27 | 1012.8 |
| 20260506201523 | 60 | 5 | 10.0 | 16.0 | 0.00 | 0.02 | 0.02 | 26 | 1012.7 |
| 20260506200021 | 59 | 23 | 15.0 | 22.0 | 0.00 | 0.02 | 0.02 | 26 | 1012.8 |
| 20260506194501 | 59 | 42 | 10.0 | 19.0 | 0.00 | 0.02 | 0.02 | 28 | 1012.8 |
| 20260506193109 | 58 | 48 | 12.0 | 21.0 | 0.00 | 0.02 | 0.02 | 29 | 1012.7 |
| 20260506191511 | 58 | 47 | 13.0 | 18.0 | 0.00 | 0.02 | 0.02 | 28 | 1012.6 |
| 20260506190020 | 58 | 27 | 13.0 | 20.0 | 0.00 | 0.02 | 0.02 | 30 | 1012.8 |
| 20260506184527 | 58 | 40 | 11.0 | 24.0 | 0.00 | 0.02 | 0.02 | 31 | 1012.7 |
| 20260506183110 | 57 | 72 | 14.0 | 21.0 | 0.00 | 0.02 | 0.02 | 31 | 1012.5 |
| 20260506181600 | 57 | 58 | 15.0 | 21.0 | 0.00 | 0.02 | 0.02 | 31 | 1012.5 |
| 20260506180055 | 56 | 57 | 10.0 | 21.0 | 0.00 | 0.02 | 0.02 | 32 | 1012.3 |
| 20260506174552 | 56 | 44 | 14.0 | 21.0 | 0.00 | 0.02 | 0.02 | 33 | 1012.5 |
| 20260506173050 | 56 | 30 | 9.0 | 21.0 | 0.00 | 0.02 | 0.02 | 34 | 1012.1 |
| 20260506171556 | 55 | 67 | 11.0 | 24.0 | 0.00 | 0.02 | 0.02 | 36 | 1011.8 |
| 20260506170047 | 56 | 26 | 14.0 | 19.0 | 0.00 | 0.02 | 0.02 | 38 | 1011.3 |
| 20260506164544 | 55 | 45 | 14.0 | 19.0 | 0.00 | 0.02 | 0.02 | 40 | 1011.1 |
| 20260506163044 | 55 | 5 | 11.0 | 18.0 | 0.00 | 0.02 | 0.02 | 43 | 1010.8 |
| 20260506161539 | 54 | 25 | 11.0 | 17.0 | 0.00 | 0.02 | 0.02 | 45 | 1010.6 |
| 20260506160037 | 53 | 24 | 10.0 | 14.0 | 0.00 | 0.02 | 0.02 | 48 | 1010.5 |
| 20260506154536 | 53 | 39 | 9.0 | 14.0 | 0.00 | 0.02 | 0.02 | 51 | 1010.3 |
| 20260506153014 | 51 | 19 | 9.0 | 15.0 | 0.00 | 0.02 | 0.02 | 52 | 1010.1 |
| 20260506151521 | 50 | 17 | 10.0 | 13.0 | 0.00 | 0.02 | 0.02 | 55 | 1009.7 |
| 20260506150010 | 49 | 21 | 9.0 | 15.0 | 0.00 | 0.02 | 0.02 | 55 | 1009.3 |
| 20260506144508 | 49 | 17 | 8.0 | 13.0 | 0.00 | 0.02 | 0.02 | 58 | 1009.3 |
| 20260506143007 | 48 | 38 | 12.0 | 17.0 | 0.00 | 0.02 | 0.02 | 58 | 1009.1 |
| 20260506141505 | 48 | 24 | 12.0 | 18.0 | 0.00 | 0.02 | 0.02 | 60 | 1009.0 |
| 20260506140003 | 47 | 36 | 11.0 | 16.0 | 0.00 | 0.02 | 0.02 | 66 | 1008.6 |
| 20260506134501 | 46 | 5 | 9.0 | 16.0 | 0.00 | 0.02 | 0.02 | 70 | 1008.5 |
| 20260506133104 | 45 | 30 | 12.0 | 18.0 | 0.01 | 0.02 | 0.02 | 72 | 1008.3 |
| 20260506131556 | 44 | 5 | 8.0 | 13.0 | 0.01 | 0.02 | 0.02 | 77 | 1008.0 |
| 20260506130055 | 44 | 19 | 11.0 | 18.0 | 0.02 | 0.02 | 0.02 | 78 | 1007.7 |
| 20260506124555 | 44 | 360 | 11.0 | 22.0 | 0.02 | 0.02 | 0.02 | 76 | 1007.4 |
| 20260506123048 | 44 | 32 | 11.0 | 21.0 | 0.01 | 0.01 | 0.01 | 78 | 1006.9 |
| 20260506121545 | 45 | 16 | 14.0 | 26.0 | 0.01 | 0.01 | 0.01 | 77 | 1006.3 |
| 20260506120045 | 46 | 26 | 19.0 | 33.0 | 0.00 | 0.00 | 0.00 | 73 | 1006.0 |
| 20260506114536 | 52 | 24 | 11.0 | 19.0 | 0.00 | 0.00 | 0.00 | 63 | 1005.2 |
| 20260506113040 | 52 | 5 | 5.0 | 9.0 | 0.00 | 0.00 | 0.00 | 67 | 1004.4 |
| 20260506111530 | 52 | 340 | 3.0 | 6.0 | 0.00 | 0.00 | 0.00 | 60 | 1004.3 |
| 20260506110033 | 53 | 340 | 2.0 | 4.0 | 0.00 | 0.00 | 0.00 | 58 | 1004.1 |
| 20260506104525 | 53 | 340 | 1.0 | 5.0 | 0.00 | 0.00 | 0.00 | 57 | 1003.7 |
| 20260506103030 | 54 | 341 | 2.0 | 5.0 | 0.00 | 0.00 | 0.00 | 58 | 1003.4 |
| 20260506101528 | 54 | 5 | 3.0 | 8.0 | 0.00 | 0.00 | 0.00 | 58 | 1003.1 |
| 20260506100029 | 53 | 331 | 3.0 | 8.0 | 0.00 | 0.00 | 0.00 | 58 | 1003.1 |
| 20260506094519 | 53 | 320 | 7.0 | 11.0 | 0.00 | 0.00 | 0.00 | 59 | 1002.9 |
| 20260506093018 | 53 | 348 | 3.0 | 6.0 | 0.00 | 0.00 | 0.00 | 59 | 1002.8 |
| 20260506091515 | 52 | 22 | 3.0 | 6.0 | 0.00 | 0.00 | 0.00 | 60 | 1002.6 |
| 20260506090013 | 51 | 32 | 0.0 | 2.0 | 0.00 | 0.00 | 0.00 | 60 | 1002.6 |
| 20260506084510 | 52 | 32 | 2.0 | 4.0 | 0.00 | 0.00 | 0.00 | 59 | 1002.5 |
| 20260506083010 | 52 | 32 | 0.0 | 2.0 | 0.00 | 0.00 | 0.00 | 55 | 1002.4 |
| 20260506081506 | 53 | 32 | 1.0 | 4.0 | 0.00 | 0.00 | 0.00 | 56 | 1002.6 |
| 20260506073001 | 53 | 40 | 2.0 | 4.0 | 0.00 | 0.00 | 0.00 | 54 | 1002.4 |
| 20260506071559 | 54 | 49 | 1.0 | 6.0 | 0.00 | 0.00 | 0.00 | 52 | 1002.4 |
| 20260506061554 | 55 | 69 | 3.0 | 6.0 | 0.00 | 0.00 | 0.00 | 52 | 1001.9 |
| 20260506044540 | 59 | 16 | 8.0 | 13.0 | 0.00 | 0.00 | 0.00 | 48 | 1001.5 |
| 20260506043038 | 60 | 360 | 6.0 | 11.0 | 0.00 | 0.00 | 0.00 | 46 | 1001.3 |
| 20260506041539 | 60 | 19 | 7.0 | 11.0 | 0.00 | 0.00 | 0.00 | 47 | 1001.0 |
| 20260506040039 | 60 | 22 | 5.0 | 10.0 | 0.00 | 0.00 | 0.00 | 47 | 1000.6 |
| 20260506034543 | 59 | 17 | 6.0 | 10.0 | 0.00 | 0.00 | 0.00 | 47 | 1000.5 |
| 20260506033043 | 59 | 46 | 5.0 | 9.0 | 0.00 | 0.00 | 0.00 | 48 | 1000.2 |
| 20260506031542 | 59 | 46 | 4.0 | 8.0 | 0.00 | 0.00 | 0.00 | 48 | 999.9 |
| 20260506030043 | 59 | 32 | 4.0 | 6.0 | 0.00 | 0.00 | 0.00 | 48 | 999.7 |
| 20260506024540 | 59 | 15 | 4.0 | 9.0 | 0.00 | 0.00 | 0.00 | 47 | 999.6 |
| 20260506023053 | 60 | 360 | 6.0 | 10.0 | 0.00 | 0.00 | 0.00 | 46 | 999.2 |
| 20260506021545 | 60 | 360 | 9.0 | 14.0 | 0.00 | 0.00 | 0.00 | 45 | 999.0 |